Weather WX

World > North America > United States > Ohio

Camp Washington, Ohio Regional Weather

Lat: 39.14N, Lon: 84.54W
Wx Zone: OHZ077
Warning FLW WEATHER ALERT - (More Info. Click Here) Warning
Feedback

Camp Washington, OH Regional Weather

Expires:201907171600;;786356
ASUS41 KCLE 171512
RWRCLE
OHIO REGIONAL WEATHER ROUNDUP
NATIONAL WEATHER SERVICE WILMINGTON, OH
1100 AM EDT WED JUL 17 2019

NOTE: "FAIR" INDICATES FEW OR NO CLOUDS BELOW 12,000 FEET WITH NO
SIGNIFICANT WEATHER AND/OR OBSTRUCTIONS TO VISIBILITY.


OHZ042-051>053-060>062-070>072-077>081-171600-
  SOUTHWEST OHIO
  
CITY           SKY/WX    TMP DP  RH WIND       PRES   REMARKS
CINC-COVINGTON CLOUDY    78  73  84 SW12      29.96S                  
CINC-LUNKEN    CLOUDY    79  74  84 SW8       29.95S                  
HAMILTON       PTSUNNY   78  76  93 VRB5      29.94F                  
DAYTON         CLOUDY    78  73  84 W15       29.94R FOG              
WRIGHT-PAT AFB PTSUNNY   78  75  91 SW10      29.92S                  
DAYTON GENERAL PTSUNNY   80  74  81 W8        29.93S                  
WILMINGTON     CLOUDY    75  74  96 SW13      29.94S                  
$$


SKY/WX - Weather  TMP - Temperature  DP - Dew Point  RH - Relative Humidity
WIND - Wind Direction/Speed PRES - Barometric Pressure VSB - Visibility
WCI - Wind Chill Index E13G22 Wind - East Wind 13 mph/Gusts of 22 mph